Priwall — V2OX8 — position and weather

sailwx.info

Track history (hours):
 
Tides and Currents Weather Stations Pressure Air Temp Water Temp Dewpoint Dewpoint Depression Visibility Wind Speed Wind Dir Waves Ship Positions

Priwall

Last reported at 2014-Sep-26 08:33 UTC. Time now 2014-Oct-02 12:38 UTC.
Position N 36°37' W 008°24'.

Length 88 m; draft 5.6 m.

Type: Cargo ship. MMSI: 304739000.

Date/timePositionNaut miles runAvg speedWind from/ knotsBaromVisibWave heightAir tempDewpointWater temp
2014-Sep-26 08:33N 36°37' W 008°24'8 6.4
2014-Sep-26 07:21N 36°36' W 008°33'6 6.7
2014-Sep-26 06:29N 36°35' W 008°40'8 6.6
2014-Sep-26 05:21N 36°34' W 008°50'23 6.0
2014-Sep-26 01:33N 36°34' W 009°18'32 6.3
2014-Sep-25 20:33N 37°02' W 009°37'10 7.7
2014-Sep-25 19:14N 37°12' W 009°40'5 7.3
2014-Sep-25 18:32N 37°17' W 009°41'7 7.4
2014-Sep-25 17:33N 37°24' W 009°43'7 7.4
2014-Sep-25 16:33N 37°31' W 009°45'7 7.3
2014-Sep-25 15:33N 37°38' W 009°47'7 7.3
2014-Sep-25 14:33N 37°45' W 009°49'7 7.1
2014-Sep-25 13:33N 37°52' W 009°51'15 7.2
2014-Sep-25 11:26N 38°07' W 009°56'  
2014-Sep-20 11:08N 54°13' W 005°20'5 9.0
2014-Sep-20 10:33N 54°18' W 005°19'9 9.0
2014-Sep-20 09:31N 54°27' W 005°19'9 9.3
2014-Sep-20 08:33N 54°36' W 005°20'10 9.7
2014-Sep-20 07:33N 54°46' W 005°20'1010.1
2014-Sep-20 06:32N 54°56' W 005°19'40 9.0
2014-Sep-20 02:07N 55°34' W 004°60'5 9.4
2014-Sep-20 01:32N 55°40' W 004°59'9 9.6
2014-Sep-20 00:33N 55°49' W 004°57'9 9.0
2014-Sep-19 23:33N 55°58' W 004°52'9 8.5
2014-Sep-19 22:33N 55°56' W 004°37'8 8.2
2014-Sep-19 21:33N 55°53' W 004°23'2 1.6
2014-Sep-19 20:33N 55°52' W 004°21'1 0.7
2014-Sep-19 19:33N 55°53' W 004°22'1 1.0
2014-Sep-19 18:33N 55°53' W 004°24'0 0.0
2014-Sep-19 17:27N 55°53' W 004°24'0 0.0
2014-Sep-19 16:27N 55°53' W 004°24'0 0.0
2014-Sep-19 15:27N 55°53' W 004°24'0 0.0
2014-Sep-19 14:33N 55°53' W 004°24'0 0.0
2014-Sep-19 13:21N 55°53' W 004°24'0 0.0
2014-Sep-19 12:33N 55°53' W 004°24'0 0.0
2014-Sep-19 11:33N 55°53' W 004°24'0 0.0
2014-Sep-19 10:30N 55°53' W 004°24'0 0.0
2014-Sep-19 09:30N 55°53' W 004°24'0 0.0
2014-Sep-19 08:30N 55°53' W 004°24'0 0.0
2014-Sep-19 07:30N 55°53' W 004°24'0 0.0
2014-Sep-19 06:21N 55°53' W 004°24'0 0.0
2014-Sep-19 05:27N 55°53' W 004°24'0 0.0
2014-Sep-19 04:27N 55°53' W 004°24'0 0.0
2014-Sep-19 03:33N 55°53' W 004°24'0 0.0
2014-Sep-19 02:27N 55°53' W 004°24'0 0.0
2014-Sep-19 01:33N 55°53' W 004°24'0 0.0
2014-Sep-19 00:27N 55°53' W 004°24'0 0.0
2014-Sep-18 23:33N 55°53' W 004°24'0 0.0
2014-Sep-18 22:33N 55°53' W 004°24'0 0.0
2014-Sep-18 21:33N 55°53' W 004°24'0 0.0
2014-Sep-18 20:33N 55°53' W 004°24'0 0.0
2014-Sep-18 19:30N 55°53' W 004°24'0 0.0
2014-Sep-18 18:30N 55°53' W 004°24'0 0.0
2014-Sep-18 17:30N 55°53' W 004°24'0 0.0
2014-Sep-18 16:30N 55°53' W 004°24'0 0.0
2014-Sep-18 15:24N 55°53' W 004°24'0 0.0
2014-Sep-18 14:12N 55°53' W 004°24'0 0.0
2014-Sep-18 13:27N 55°53' W 004°24'0 0.0
2014-Sep-18 12:30N 55°53' W 004°24'0 0.0
2014-Sep-18 11:30N 55°53' W 004°24'0 0.0
2014-Sep-18 10:30N 55°53' W 004°24'0 0.0
2014-Sep-18 09:30N 55°53' W 004°24'0 0.0
2014-Sep-18 08:33N 55°53' W 004°24'0 0.0
2014-Sep-18 07:33N 55°53' W 004°24'0 0.0
2014-Sep-18 06:33N 55°53' W 004°24'0 0.0
2014-Sep-18 05:33N 55°53' W 004°24'0 0.0
2014-Sep-18 04:33N 55°53' W 004°24'0 0.0
2014-Sep-18 03:33N 55°53' W 004°24'0 0.0
2014-Sep-18 02:30N 55°53' W 004°24'0 0.0
2014-Sep-18 01:33N 55°53' W 004°24'0 0.0
2014-Sep-18 00:33N 55°53' W 004°24'0 0.0
2014-Sep-17 23:33N 55°53' W 004°24'0 0.0
2014-Sep-17 22:33N 55°53' W 004°24'0 0.0
2014-Sep-17 21:33N 55°53' W 004°24'0 0.0
2014-Sep-17 20:33N 55°53' W 004°24'0 0.0
2014-Sep-17 19:33N 55°53' W 004°24'0 0.0
2014-Sep-17 18:33N 55°53' W 004°24'0 0.0
2014-Sep-17 17:33N 55°53' W 004°24'6 5.6
2014-Sep-17 16:34N 55°56' W 004°32'10 9.7
2014-Sep-17 15:33N 55°58' W 004°49'5 4.9
2014-Sep-17 14:33N 55°54' W 004°55'6 5.7
2014-Sep-17 13:33N 55°49' W 004°57'6 6.2
2014-Sep-17 12:33N 55°43' W 004°59'39 9.5
2014-Sep-17 08:25N 55°05' W 005°20'8 9.8
2014-Sep-17 07:33N 54°57' W 005°21'9 9.3
2014-Sep-17 06:33N 54°48' W 005°19'9 9.4
2014-Sep-17 05:33N 54°40' W 005°11'8 8.3
2014-Sep-17 04:33N 54°32' W 005°06'8 8.1
2014-Sep-17 03:32N 54°24' W 005°04'8 8.2
2014-Sep-17 02:33N 54°16' W 005°02'9 8.7
2014-Sep-17 01:33N 54°07' W 005°01'29 8.5
2014-Sep-16 22:09N 53°49' W 004°23'6 9.8
2014-Sep-16 21:33N 53°46' W 004°14'1010.0
2014-Sep-16 20:33N 53°41' W 003°59'1010.5
2014-Sep-16 19:33N 53°37' W 003°43'1111.0
2014-Sep-16 18:33N 53°33' W 003°26'1010.3
2014-Sep-16 17:33N 53°32' W 003°08'1010.0
2014-Sep-16 16:32N 53°23' W 002°60'2 1.7
2014-Sep-16 15:28N 53°21' W 002°59'0 0.0
2014-Sep-16 12:10N 53°21' W 002°59'0 0.0
2014-Sep-16 11:28N 53°21' W 002°59'0 0.0
2014-Sep-16 09:04N 53°21' W 002°59'  
Track history (hours):
 
Tides and Currents Weather Stations Pressure Air Temp Water Temp Dewpoint Dewpoint Depression Visibility Wind Speed Wind Dir Waves Ship Positions

Priwall

Last reported at 2014-Sep-26 08:33 UTC. Time now 2014-Oct-02 12:38 UTC.
Position N 36°37' W 008°24'.

Length 88 m; draft 5.6 m.

Type: Cargo ship. MMSI: 304739000.

Date/timePositionNaut miles runAvg speedWind from/ knotsBaromVisibWave heightAir tempDewpointWater temp
2014-Sep-26 08:33N 36°37' W 008°24'8 6.4
2014-Sep-26 07:21N 36°36' W 008°33'6 6.7
2014-Sep-26 06:29N 36°35' W 008°40'8 6.6
2014-Sep-26 05:21N 36°34' W 008°50'23 6.0
2014-Sep-26 01:33N 36°34' W 009°18'32 6.3
2014-Sep-25 20:33N 37°02' W 009°37'10 7.7
2014-Sep-25 19:14N 37°12' W 009°40'5 7.3
2014-Sep-25 18:32N 37°17' W 009°41'7 7.4
2014-Sep-25 17:33N 37°24' W 009°43'7 7.4
2014-Sep-25 16:33N 37°31' W 009°45'7 7.3
2014-Sep-25 15:33N 37°38' W 009°47'7 7.3
2014-Sep-25 14:33N 37°45' W 009°49'7 7.1
2014-Sep-25 13:33N 37°52' W 009°51'15 7.2
2014-Sep-25 11:26N 38°07' W 009°56'  
2014-Sep-20 11:08N 54°13' W 005°20'5 9.0
2014-Sep-20 10:33N 54°18' W 005°19'9 9.0
2014-Sep-20 09:31N 54°27' W 005°19'9 9.3
2014-Sep-20 08:33N 54°36' W 005°20'10 9.7
2014-Sep-20 07:33N 54°46' W 005°20'1010.1
2014-Sep-20 06:32N 54°56' W 005°19'40 9.0
2014-Sep-20 02:07N 55°34' W 004°60'5 9.4
2014-Sep-20 01:32N 55°40' W 004°59'9 9.6
2014-Sep-20 00:33N 55°49' W 004°57'9 9.0
2014-Sep-19 23:33N 55°58' W 004°52'9 8.5
2014-Sep-19 22:33N 55°56' W 004°37'8 8.2
2014-Sep-19 21:33N 55°53' W 004°23'2 1.6
2014-Sep-19 20:33N 55°52' W 004°21'1 0.7
2014-Sep-19 19:33N 55°53' W 004°22'1 1.0
2014-Sep-19 18:33N 55°53' W 004°24'0 0.0
2014-Sep-19 17:27N 55°53' W 004°24'0 0.0
2014-Sep-19 16:27N 55°53' W 004°24'0 0.0
2014-Sep-19 15:27N 55°53' W 004°24'0 0.0
2014-Sep-19 14:33N 55°53' W 004°24'0 0.0
2014-Sep-19 13:21N 55°53' W 004°24'0 0.0
2014-Sep-19 12:33N 55°53' W 004°24'0 0.0
2014-Sep-19 11:33N 55°53' W 004°24'0 0.0
2014-Sep-19 10:30N 55°53' W 004°24'0 0.0
2014-Sep-19 09:30N 55°53' W 004°24'0 0.0
2014-Sep-19 08:30N 55°53' W 004°24'0 0.0
2014-Sep-19 07:30N 55°53' W 004°24'0 0.0
2014-Sep-19 06:21N 55°53' W 004°24'0 0.0
2014-Sep-19 05:27N 55°53' W 004°24'0 0.0
2014-Sep-19 04:27N 55°53' W 004°24'0 0.0
2014-Sep-19 03:33N 55°53' W 004°24'0 0.0
2014-Sep-19 02:27N 55°53' W 004°24'0 0.0
2014-Sep-19 01:33N 55°53' W 004°24'0 0.0
2014-Sep-19 00:27N 55°53' W 004°24'0 0.0
2014-Sep-18 23:33N 55°53' W 004°24'0 0.0
2014-Sep-18 22:33N 55°53' W 004°24'0 0.0
2014-Sep-18 21:33N 55°53' W 004°24'0 0.0
2014-Sep-18 20:33N 55°53' W 004°24'0 0.0
2014-Sep-18 19:30N 55°53' W 004°24'0 0.0
2014-Sep-18 18:30N 55°53' W 004°24'0 0.0
2014-Sep-18 17:30N 55°53' W 004°24'0 0.0
2014-Sep-18 16:30N 55°53' W 004°24'0 0.0
2014-Sep-18 15:24N 55°53' W 004°24'0 0.0
2014-Sep-18 14:12N 55°53' W 004°24'0 0.0
2014-Sep-18 13:27N 55°53' W 004°24'0 0.0
2014-Sep-18 12:30N 55°53' W 004°24'0 0.0
2014-Sep-18 11:30N 55°53' W 004°24'0 0.0
2014-Sep-18 10:30N 55°53' W 004°24'0 0.0
2014-Sep-18 09:30N 55°53' W 004°24'0 0.0
2014-Sep-18 08:33N 55°53' W 004°24'0 0.0
2014-Sep-18 07:33N 55°53' W 004°24'0 0.0
2014-Sep-18 06:33N 55°53' W 004°24'0 0.0
2014-Sep-18 05:33N 55°53' W 004°24'0 0.0
2014-Sep-18 04:33N 55°53' W 004°24'0 0.0
2014-Sep-18 03:33N 55°53' W 004°24'0 0.0
2014-Sep-18 02:30N 55°53' W 004°24'0 0.0
2014-Sep-18 01:33N 55°53' W 004°24'0 0.0
2014-Sep-18 00:33N 55°53' W 004°24'0 0.0
2014-Sep-17 23:33N 55°53' W 004°24'0 0.0
2014-Sep-17 22:33N 55°53' W 004°24'0 0.0
2014-Sep-17 21:33N 55°53' W 004°24'0 0.0
2014-Sep-17 20:33N 55°53' W 004°24'0 0.0
2014-Sep-17 19:33N 55°53' W 004°24'0 0.0
2014-Sep-17 18:33N 55°53' W 004°24'0 0.0
2014-Sep-17 17:33N 55°53' W 004°24'6 5.6
2014-Sep-17 16:34N 55°56' W 004°32'10 9.7
2014-Sep-17 15:33N 55°58' W 004°49'5 4.9
2014-Sep-17 14:33N 55°54' W 004°55'6 5.7
2014-Sep-17 13:33N 55°49' W 004°57'6 6.2
2014-Sep-17 12:33N 55°43' W 004°59'39 9.5
2014-Sep-17 08:25N 55°05' W 005°20'8 9.8
2014-Sep-17 07:33N 54°57' W 005°21'9 9.3
2014-Sep-17 06:33N 54°48' W 005°19'9 9.4
2014-Sep-17 05:33N 54°40' W 005°11'8 8.3
2014-Sep-17 04:33N 54°32' W 005°06'8 8.1
2014-Sep-17 03:32N 54°24' W 005°04'8 8.2
2014-Sep-17 02:33N 54°16' W 005°02'9 8.7
2014-Sep-17 01:33N 54°07' W 005°01'29 8.5
2014-Sep-16 22:09N 53°49' W 004°23'6 9.8
2014-Sep-16 21:33N 53°46' W 004°14'1010.0
2014-Sep-16 20:33N 53°41' W 003°59'1010.5
2014-Sep-16 19:33N 53°37' W 003°43'1111.0
2014-Sep-16 18:33N 53°33' W 003°26'1010.3
2014-Sep-16 17:33N 53°32' W 003°08'1010.0
2014-Sep-16 16:32N 53°23' W 002°60'2 1.7
2014-Sep-16 15:28N 53°21' W 002°59'0 0.0
2014-Sep-16 12:10N 53°21' W 002°59'0 0.0
2014-Sep-16 11:28N 53°21' W 002°59'0 0.0
2014-Sep-16 09:04N 53°21' W 002°59'  

Dump ship's entire track history